QPF
0.00 0.00 0.00 0.00 0.00 0.00 0.00 0.00 0.00 0.00 0.00 0.00 0.00 0.00 0.00 0.00 0.00 0.00 0.00 0.00 0.00 0.00 0.00 0.00 0.00 0.00 0.00 0.00 0.00 0.00 0.00 0.00 0.00 0.00 0.00 0.00 0.00 0.00 0.00 0.00 0.00 0.00 0.00 0.00 0.00 0.00 0.00 0.00 0.00
0.00 0.00 0.00 0.00 0.00 0.00 0.00 0.00 0.00 0.00 0.00 0.00 0.00 0.00 0.00 0.00 0.00 0.00 0.00 0.00 0.00 0.00 0.00 0.00 0.00 0.00 0.00 0.00 0.00 0.00 0.00 0.00 0.00 0.00 0.00 0.00 0.00 0.00 0.00 0.00 0.00 0.00 0.00 0.00 0.00 0.00 0.00 0.00 0.00
0.00 0.00 0.00 0.00 0.00 0.00 0.00 0.00 0.00 0.00 0.00 0.00 0.00 0.00 0.00 0.00 0.00 0.00 0.00 0.00 0.00 0.00 0.00 0.00 0.00 0.00 0.00 0.00 0.00 0.00 0.00 0.00 0.00 0.00 0.00 0.00 0.00 0.00 0.00 0.00 0.00 0.00 0.00 0.00 0.00 0.00 0.00 0.00 0.00
0.00 0.00 0.00 0.00 0.00 0.00 0.00 0.00 0.00 0.00 0.00 0.00 0.00 0.00 0.00 0.00 0.00 0.00 0.00 0.00 0.00 0.00 0.00 0.00 0.00 0.00 0.00 0.00 0.00 0.00 0.00 0.00 0.00 0.00 0.00 0.00 0.00 0.00 0.00 0.00 0.00 0.00 0.00 0.00 0.00 0.00 0.01 0.01 0.00
0.00 0.00 0.00 0.00 0.00 0.00 0.00 0.00 0.00 0.00 0.00 0.00 0.00 0.00 0.00 0.00 0.00 0.00 0.00 0.00 0.00 0.00 0.00 0.00 0.00 0.00 0.00 0.00 0.00 0.00 0.00 0.00 0.00 0.00 0.00 0.00 0.00 0.00 0.00 0.00 0.00 0.00 0.00 0.00 0.00 0.00 0.00 0.01 0.01
0.00 0.00 0.00 0.00 0.00 0.00 0.00 0.00 0.00 0.00 0.00 0.00 0.00 0.00 0.00 0.00 0.00 0.00 0.00 0.00 0.00 0.00 0.00 0.00 0.00 0.00 0.00 0.00 0.00 0.00 0.00 0.00 0.00 0.00 0.00 0.00 0.00 0.00 0.00 0.00 0.00 0.00 0.00 0.00 0.00 0.00 0.00 0.00 0.00
0.00 0.00 0.00 0.00 0.00 0.00 0.00 0.00 0.00 0.00 0.00 0.00 0.00 0.00 0.00 0.00 0.00 0.00 0.00 0.00 0.00 0.00 0.00 0.00 0.00 0.00 0.00 0.00 0.00 0.00 0.00 0.00 0.00 0.00 0.00 0.00 0.00 0.00 0.00 0.00 0.00 0.00 0.00 0.00 0.00 0.00 0.00 0.00 0.00
0.00 0.00 0.00 0.00 0.00 0.00 0.00 0.00 0.00 0.00 0.00 0.00 0.00 0.00 0.00 0.00 0.00 0.00 0.00 0.00 0.00 0.00 0.00 0.00 0.00 0.00 0.00 0.00 0.00 0.00 0.00 0.00 0.00 0.00 0.00 0.00 0.00 0.00 0.00 0.00 0.00 0.00 0.00 0.00 0.00 0.00 0.00 0.00 0.00
0.00 0.00 0.00 0.00 0.00 0.00 0.00 0.00 0.00 0.00 0.00 0.00 0.00 0.00 0.00 0.00 0.00 0.00 0.00 0.00 0.00 0.00 0.00 0.00 0.00 0.00 0.00 0.00 0.00 0.00 0.00 0.00 0.00 0.00 0.00 0.00 0.00 0.00 0.00 0.00 0.00 0.00 0.00 0.00 0.00 0.00 0.00 0.00 0.00
0.00 0.00 0.00 0.00 0.00 0.00 0.00 0.00 0.00 0.00 0.00 0.00 0.00 0.00 0.00 0.00 0.00 0.00 0.00 0.00 0.00 0.00 0.00 0.00 0.00 0.00 0.00 0.00 0.00 0.00 0.00 0.00 0.00 0.00 0.00 0.00 0.00 0.00 0.00 0.00 0.00 0.00 0.00 0.00 0.00 0.00 0.00 0.00 0.00
0.00 0.00 0.00 0.00 0.00 0.00 0.00 0.00 0.00 0.00 0.00 0.00 0.00 0.00 0.00 0.00 0.00 0.00 0.00 0.00 0.00 0.00 0.00 0.00 0.00 0.00 0.00 0.00 0.00 0.00 0.00 0.00 0.00 0.00 0.00 0.00 0.00 0.00 0.00 0.00 0.00 0.00 0.00 0.00 0.00 0.00 0.00 0.00 0.00
0.00 0.00 0.00 0.00 0.00 0.00 0.00 0.00 0.00 0.00 0.00 0.00 0.00 0.00 0.00 0.00 0.00 0.00 0.00 0.00 0.00 0.00 0.00 0.00 0.00 0.00 0.00 0.00 0.00 0.00 0.00 0.00 0.00 0.00 0.00 0.00 0.00 0.00 0.00 0.00 0.00 0.00 0.00 0.00 0.00 0.00 0.00 0.00 0.00
0.00 0.00 0.00 0.00 0.00 0.00 0.00 0.00 0.00 0.00 0.00 0.00 0.00 0.00 0.00 0.00 0.00 0.00 0.00 0.00 0.00 0.00 0.00 0.00 0.00 0.00 0.00 0.00 0.00 0.00 0.00 0.00 0.00 0.00 0.00 0.00 0.00 0.00 0.00 0.00 0.00 0.00 0.00 0.00 0.00 0.00 0.00 0.00 0.00
0.00 0.00 0.00 0.00 0.00 0.00 0.00 0.00 0.00 0.00 0.00 0.00 0.00 0.00 0.00 0.00 0.00 0.00 0.00 0.00 0.00 0.00 0.00 0.00 0.00 0.00 0.00 0.00 0.00 0.00 0.00 0.00 0.00 0.00 0.00 0.00 0.00 0.00 0.00 0.00 0.00 0.00 0.00 0.00 0.00 0.00 0.00 0.00 0.00
0.00 0.00 0.00 0.00 0.00 0.00 0.00 0.00 0.00 0.00 0.00 0.00 0.00 0.00 0.00 0.00 0.00 0.00 0.00 0.00 0.00 0.00 0.00 0.00 0.00 0.00 0.00 0.00 0.00 0.00 0.00 0.00 0.00 0.00 0.00 0.00 0.00 0.00 0.00 0.00 0.00 0.00 0.00 0.00 0.00 0.00 0.00 0.00 0.00
0.00 0.00 0.00 0.00 0.00 0.00 0.00 0.00 0.00 0.00 0.00 0.00 0.00 0.00 0.00 0.00 0.00 0.00 0.00 0.00 0.00 0.00 0.00 0.00 0.00 0.00 0.00 0.00 0.00 0.00 0.00 0.00 0.00 0.00 0.00 0.00 0.00 0.01 0.00 0.00 0.00 0.00 0.00 0.00 0.00 0.00 0.00 0.00 0.00
0.00 0.00 0.00 0.00 0.00 0.00 0.00 0.00 0.00 0.00 0.00 0.00 0.00 0.00 0.00 0.00 0.00 0.00 0.00 0.00 0.00 0.00 0.00 0.00 0.00 0.00 0.00 0.00 0.00 0.00 0.00 0.00 0.00 0.00 0.00 0.00 0.02 0.02 0.00 0.00 0.00 0.00 0.00 0.00 0.00 0.00 0.01 0.00 0.00
0.00 0.00 0.00 0.00 0.00 0.00 0.00 0.00 0.00 0.00 0.00 0.00 0.00 0.00 0.00 0.00 0.00 0.00 0.00 0.00 0.00 0.00 0.00 0.00 0.00 0.00 0.00 0.00 0.00 0.00 0.00 0.00 0.00 0.00 0.05 0.01 0.01 0.05 0.02 0.00 0.00 0.00 0.00 0.01 0.04 0.02 0.03 0.02 0.05
0.00 0.00 0.00 0.00 0.00 0.00 0.00 0.00 0.00 0.00 0.00 0.00 0.00 0.00 0.00 0.00 0.00 0.00 0.00 0.00 0.00 0.00 0.00 0.00 0.00 0.00 0.00 0.00 0.00 0.00 0.00 0.00 0.00 0.03 0.08 0.09 0.06 0.03 0.01 0.00 0.00 0.00 0.01 0.11 0.15 0.11 0.12 0.13 0.15
0.00 0.00 0.00 0.00 0.00 0.00 0.00 0.00 0.00 0.00 0.00 0.00 0.00 0.00 0.00 0.00 0.00 0.00 0.00 0.00 0.00 0.00 0.00 0.00 0.00 0.00 0.00 0.00 0.00 0.00 0.00 0.00 0.00 0.00 0.04 0.04 0.01 0.00 0.00 0.00 0.00 0.00 0.09 0.11 0.11 0.07 0.13 0.20 0.12
0.00 0.00 0.00 0.00 0.00 0.00 0.00 0.00 0.00 0.00 0.00 0.00 0.00 0.00 0.00 0.00 0.00 0.00 0.00 0.00 0.00 0.00 0.00 0.00 0.00 0.00 0.00 0.00 0.00 0.00 0.00 0.00 0.00 0.00 0.00 0.00 0.00 0.00 0.00 0.00 0.01 0.01 0.00 0.04 0.01 0.00 0.03 0.07 0.06
0.00 0.00 0.00 0.00 0.00 0.00 0.00 0.00 0.00 0.00 0.00 0.00 0.00 0.00 0.00 0.00 0.00 0.00 0.00 0.00 0.00 0.00 0.00 0.00 0.00 0.00 0.00 0.00 0.00 0.00 0.00 0.00 0.00 0.00 0.00 0.00 0.00 0.00 0.00 0.00 0.00 0.00 0.00 0.00 0.00 0.00 0.00 0.00 0.00
0.00 0.00 0.00 0.00 0.00 0.00 0.00 0.00 0.00 0.00 0.00 0.00 0.00 0.00 0.00 0.00 0.00 0.00 0.00 0.00 0.00 0.00 0.00 0.00 0.00 0.00 0.00 0.00 0.00 0.00 0.00 0.00 0.00 0.00 0.00 0.00 0.00 0.00 0.00 0.01 0.00 0.00 0.00 0.00 0.00 0.00 0.00 0.00 0.00
0.00 0.00 0.00 0.00 0.00 0.00 0.00 0.00 0.00 0.00 0.00 0.00 0.00 0.00 0.00 0.00 0.00 0.00 0.00 0.00 0.00 0.00 0.00 0.00 0.00 0.00 0.00 0.00 0.00 0.00 0.00 0.00 0.00 0.00 0.00 0.00 0.00 0.00 0.00 0.00 0.00 0.00 0.00 0.00 0.00 0.00 0.00 0.00 0.00
0.00 0.00 0.00 0.00 0.00 0.00 0.00 0.00 0.00 0.00 0.00 0.00 0.00 0.00 0.00 0.00 0.00 0.00 0.00 0.00 0.00 0.00 0.00 0.00 0.00 0.00 0.00 0.00 0.00 0.00 0.00 0.00 0.00 0.00 0.00 0.00 0.00 0.00 0.00 0.00 0.00 0.00 0.00 0.00 0.00 0.00 0.00 0.00 0.00
0.00 0.00 0.00 0.00 0.00 0.00 0.00 0.00 0.00 0.00 0.00 0.00 0.00 0.00 0.00 0.00 0.00 0.00 0.00 0.00 0.00 0.00 0.00 0.00 0.00 0.00 0.00 0.00 0.00 0.00 0.00 0.00 0.00 0.00 0.00 0.00 0.00 0.00 0.00 0.00 0.00 0.00 0.00 0.03 0.08 0.04 0.04 0.03 0.04
0.00 0.00 0.00 0.00 0.00 0.00 0.00 0.00 0.00 0.00 0.00 0.00 0.00 0.00 0.00 0.00 0.00 0.00 0.00 0.00 0.00 0.00 0.00 0.00 0.00 0.00 0.00 0.00 0.00 0.00 0.00 0.00 0.00 0.00 0.00 0.00 0.00 0.00 0.00 0.00 0.00 0.00 0.00 0.01 0.12 0.20 0.10 0.06 0.01
0.00 0.00 0.00 0.00 0.00 0.00 0.00 0.00 0.00 0.00 0.00 0.00 0.00 0.00 0.00 0.00 0.00 0.00 0.00 0.00 0.00 0.00 0.00 0.00 0.00 0.00 0.00 0.00 0.00 0.00 0.00 0.00 0.00 0.00 0.00 0.00 0.00 0.00 0.00 0.00 0.00 0.00 0.00 0.00 0.02 0.05 0.03 0.01 0.00
0.00 0.00 0.00 0.00 0.00 0.00 0.00 0.00 0.00 0.00 0.00 0.00 0.00 0.00 0.00 0.00 0.00 0.00 0.00 0.00 0.00 0.00 0.00 0.00 0.00 0.00 0.00 0.00 0.00 0.00 0.00 0.00 0.00 0.00 0.00 0.00 0.00 0.00 0.00 0.00 0.00 0.00 0.00 0.00 0.03 0.03 0.01 0.00 0.00
0.00 0.00 0.00 0.00 0.00 0.00 0.00 0.00 0.00 0.00 0.00 0.00 0.00 0.00 0.00 0.00 0.00 0.00 0.00 0.00 0.00 0.00 0.00 0.00 0.00 0.00 0.00 0.00 0.00 0.00 0.00 0.00 0.00 0.00 0.00 0.00 0.00 0.00 0.00 0.00 0.00 0.00 0.00 0.00 0.02 0.04 0.04 0.00 0.00
MSLP
1011.53 1011.58 1011.65 1011.77 1012.40 1011.85 1010.79 1009.22 1007.44 1006.20 1004.85 1004.55 1003.64 1003.17 1003.77 1004.30 1004.90 1005.94 1004.80 1005.18 1005.84 1006.53 1007.54 1008.22 1008.74 1009.03 1009.32 1009.60 1009.92 1010.36 1010.80 1011.04 1011.31 1011.61 1011.96 1012.19 1012.35 1012.60 1012.91 1013.04 1013.21 1013.48 1013.65 1013.65 1013.71 1013.71 1013.72 1013.84 1013.97
1011.27 1011.43 1011.64 1011.92 1012.00 1011.33 1009.74 1008.04 1006.84 1006.28 1005.10 1003.78 1003.33 1003.53 1003.66 1004.38 1004.33 1004.73 1005.37 1005.84 1005.87 1006.51 1007.47 1008.15 1008.62 1008.91 1009.29 1009.64 1009.83 1010.29 1010.77 1011.02 1011.26 1011.71 1012.02 1012.17 1012.26 1012.46 1012.71 1012.86 1013.08 1013.29 1013.44 1013.55 1013.56 1013.56 1013.58 1013.67 1013.83
1011.20 1011.12 1012.15 1011.92 1011.35 1010.24 1008.79 1007.18 1006.27 1006.04 1004.56 1003.81 1003.65 1002.82 1004.16 1004.19 1004.32 1004.57 1004.89 1005.70 1006.41 1007.10 1007.46 1007.76 1008.12 1008.42 1008.97 1009.30 1009.58 1009.95 1010.37 1010.77 1011.09 1011.43 1011.76 1011.98 1012.07 1012.23 1012.43 1012.62 1012.82 1013.08 1013.16 1013.24 1013.27 1013.32 1013.35 1013.45 1013.55
1011.39 1011.56 1012.11 1011.72 1010.55 1008.90 1007.50 1006.10 1006.00 1005.60 1004.44 1003.84 1003.82 1003.70 1004.19 1003.87 1003.86 1004.09 1005.07 1005.71 1006.35 1006.91 1007.12 1007.17 1007.41 1007.77 1008.26 1008.76 1009.12 1009.46 1009.83 1010.22 1010.69 1010.97 1011.25 1011.61 1011.71 1011.87 1012.03 1012.28 1012.58 1012.75 1012.84 1012.87 1012.97 1013.06 1013.12 1013.21 1013.27
1011.51 1012.02 1012.27 1011.37 1009.75 1008.14 1006.71 1005.95 1005.46 1004.96 1004.20 1003.93 1003.31 1003.63 1003.89 1003.74 1003.58 1004.01 1004.65 1005.25 1005.60 1006.32 1006.54 1006.80 1006.95 1007.46 1007.93 1008.31 1008.80 1009.00 1009.26 1009.70 1010.14 1010.51 1010.77 1011.09 1011.37 1011.56 1011.73 1011.96 1012.23 1012.42 1012.58 1012.63 1012.68 1012.80 1012.85 1012.97 1013.09
1011.74 1012.23 1012.05 1010.98 1009.28 1007.34 1005.99 1005.47 1004.11 1004.24 1004.27 1003.52 1003.85 1004.33 1004.07 1003.86 1003.72 1004.01 1004.33 1004.68 1004.77 1005.19 1006.21 1006.72 1006.98 1007.15 1007.47 1007.79 1008.20 1008.51 1008.96 1009.18 1009.57 1010.00 1010.30 1010.68 1011.08 1011.46 1011.70 1011.76 1011.94 1012.13 1012.29 1012.41 1012.42 1012.60 1012.70 1012.71 1012.80
1011.70 1012.28 1011.62 1010.75 1009.10 1007.41 1005.66 1004.75 1004.45 1003.78 1003.62 1003.33 1002.87 1003.66 1003.91 1004.14 1003.48 1003.48 1003.85 1004.10 1004.69 1005.13 1005.58 1006.42 1006.70 1006.88 1007.09 1007.33 1007.69 1008.13 1008.53 1008.96 1009.22 1009.59 1009.94 1010.36 1010.81 1011.22 1011.50 1011.64 1011.83 1011.98 1012.09 1012.16 1012.24 1012.34 1012.39 1012.46 1012.57
1011.20 1011.79 1011.40 1010.37 1009.03 1007.04 1005.74 1004.64 1004.16 1003.38 1002.78 1002.48 1002.69 1003.63 1004.03 1003.47 1003.01 1003.55 1003.74 1003.84 1004.44 1004.74 1005.13 1005.48 1006.03 1006.62 1007.03 1007.23 1007.32 1007.62 1007.96 1008.38 1008.80 1009.22 1009.50 1009.98 1010.41 1010.87 1011.27 1011.43 1011.63 1011.73 1011.84 1011.85 1012.01 1012.11 1012.15 1012.22 1012.32
1010.20 1011.30 1010.91 1009.60 1008.44 1006.46 1006.04 1005.42 1003.43 1003.27 1003.05 1002.84 1002.63 1002.44 1002.53 1002.55 1003.10 1003.54 1003.77 1004.24 1004.97 1005.07 1004.80 1005.27 1005.27 1005.87 1006.48 1006.86 1007.14 1007.36 1007.69 1008.07 1008.47 1008.80 1009.07 1009.54 1010.06 1010.50 1010.95 1011.17 1011.36 1011.54 1011.60 1011.67 1011.67 1011.81 1012.00 1012.11 1012.16
1009.83 1010.03 1009.62 1008.15 1007.23 1006.41 1005.61 1006.08 1005.50 1003.89 1003.75 1003.03 1002.79 1002.68 1002.12 1002.12 1002.85 1003.37 1003.45 1003.61 1004.17 1004.39 1004.65 1004.88 1005.13 1005.52 1006.06 1006.33 1006.97 1007.25 1007.58 1007.95 1008.26 1008.57 1008.70 1009.01 1009.69 1010.18 1010.53 1010.90 1011.00 1011.23 1011.31 1011.57 1011.60 1011.59 1011.77 1011.84 1012.04
1008.69 1008.08 1008.25 1007.32 1007.04 1006.48 1005.73 1005.12 1005.51 1004.95 1004.05 1003.62 1003.25 1002.73 1002.13 1002.22 1002.46 1002.82 1003.23 1002.98 1002.66 1002.96 1003.78 1004.17 1004.44 1004.82 1005.34 1005.70 1006.38 1006.90 1007.32 1007.58 1007.91 1008.25 1008.50 1008.70 1009.35 1009.92 1010.30 1010.71 1010.66 1010.83 1010.98 1011.41 1011.47 1011.47 1011.66 1011.75 1011.85
1008.46 1007.45 1007.62 1007.24 1006.69 1006.27 1005.56 1005.27 1004.44 1004.23 1003.82 1003.11 1002.80 1002.68 1002.36 1002.17 1002.43 1002.49 1002.74 1002.46 1002.21 1002.00 1002.60 1003.02 1003.46 1003.95 1004.37 1005.11 1005.54 1006.20 1006.80 1007.06 1007.51 1007.72 1008.15 1008.60 1009.26 1009.74 1010.18 1010.43 1010.41 1010.64 1010.85 1011.16 1011.35 1011.53 1011.60 1011.69 1011.65
1007.80 1007.20 1007.38 1006.85 1006.41 1005.73 1005.38 1004.74 1004.15 1003.01 1002.72 1002.39 1002.14 1001.94 1001.91 1002.07 1002.10 1001.97 1002.06 1001.90 1001.56 1001.72 1001.57 1002.04 1002.55 1003.06 1003.63 1004.39 1004.91 1005.54 1005.88 1006.35 1006.77 1007.27 1007.73 1008.10 1008.81 1009.30 1009.65 1010.00 1010.07 1010.30 1010.67 1010.98 1011.19 1011.43 1011.54 1011.65 1011.57
1007.41 1007.51 1006.95 1006.53 1005.92 1005.33 1005.12 1003.94 1003.56 1002.68 1002.30 1001.82 1001.75 1001.55 1001.43 1001.53 1001.60 1001.48 1001.59 1001.66 1001.72 1001.10 1000.73 1001.24 1001.76 1002.20 1002.90 1003.52 1003.96 1004.41 1004.99 1005.54 1006.19 1006.71 1007.12 1007.54 1007.91 1008.58 1009.10 1009.51 1009.89 1010.11 1010.26 1010.45 1010.57 1010.93 1011.16 1011.26 1011.31
1007.91 1007.67 1006.89 1005.60 1005.51 1004.95 1004.88 1002.86 1002.08 1002.11 1002.04 1001.73 1001.67 1001.32 1001.09 1000.91 1000.78 1000.96 1000.78 1000.82 1000.60 1000.44 1000.35 1000.61 1000.97 1001.59 1002.11 1002.48 1003.08 1003.68 1003.98 1004.85 1005.58 1006.10 1006.49 1007.00 1007.28 1007.78 1008.40 1008.87 1009.22 1009.53 1009.84 1010.22 1010.43 1010.67 1010.89 1011.08 1011.15
1007.97 1007.68 1006.55 1004.53 1005.07 1004.81 1005.50 1000.32 1001.50 1001.87 1001.87 1001.39 1001.16 1000.90 1000.48 1000.04 999.85 999.93 999.90 999.96 999.65 999.78 999.84 999.81 1000.14 1000.60 1001.17 1001.58 1002.02 1002.69 1003.23 1003.99 1004.82 1005.54 1005.95 1006.46 1006.87 1007.21 1008.00 1008.56 1008.84 1008.99 1009.55 1010.11 1010.32 1010.47 1010.74 1010.87 1010.88
1007.91 1006.63 1005.66 1004.11 1004.71 1004.74 1004.60 998.89 1001.91 1001.79 1001.48 1001.02 1000.75 1000.22 999.85 999.42 999.21 999.18 998.86 998.78 998.68 998.74 998.85 999.13 999.85 999.98 1000.33 1000.98 1001.51 1002.19 1002.71 1003.61 1004.44 1005.13 1005.71 1006.08 1006.51 1007.04 1007.68 1008.22 1008.50 1008.56 1009.20 1009.65 1009.85 1010.14 1010.43 1010.63 1010.61
1007.02 1006.15 1004.73 1004.51 1004.90 1004.51 1004.07 1000.43 1001.47 1001.40 1000.98 1000.44 1000.11 999.57 999.32 998.88 998.67 998.20 997.95 997.79 997.88 998.11 998.26 998.71 999.40 999.69 1000.16 1000.98 1001.62 1002.27 1002.87 1003.58 1004.25 1004.92 1005.31 1005.85 1006.30 1006.74 1007.55 1007.91 1008.16 1008.43 1009.04 1009.48 1009.68 1009.88 1009.94 1009.98 1010.04
1006.69 1006.34 1005.28 1004.73 1004.37 1004.13 1002.86 1001.73 1000.81 1000.65 1000.24 1000.05 999.29 998.95 998.39 998.25 997.53 997.32 997.26 997.26 997.62 997.81 998.22 998.61 999.02 999.52 999.98 1000.86 1001.47 1002.18 1002.80 1003.55 1004.24 1004.59 1005.08 1005.88 1006.33 1006.61 1007.31 1007.54 1007.79 1008.33 1008.80 1008.93 1009.22 1009.44 1009.63 1009.61 1009.84
1007.19 1006.52 1005.19 1005.43 1004.57 1003.91 1003.46 1001.66 1000.70 1000.03 999.43 999.50 998.87 998.35 998.10 997.68 997.19 997.11 997.01 996.93 997.11 997.52 997.60 998.01 998.31 998.73 999.40 999.98 1000.90 1001.77 1002.74 1003.64 1004.08 1004.64 1005.14 1005.58 1005.99 1006.42 1006.80 1007.14 1007.55 1008.12 1008.62 1008.85 1009.01 1009.23 1009.30 1009.32 1009.49
1006.44 1006.26 1006.00 1006.08 1005.27 1003.80 1003.98 1002.02 1000.53 999.37 998.90 998.57 998.28 997.50 997.34 996.86 996.92 996.93 996.69 996.70 996.97 997.17 997.41 997.73 998.06 998.61 999.39 1000.06 1000.87 1002.03 1002.90 1003.81 1004.48 1004.99 1005.24 1005.40 1005.65 1006.12 1006.51 1006.92 1007.50 1007.82 1008.17 1008.37 1008.50 1008.65 1008.87 1009.15 1009.39
1005.81 1006.23 1006.22 1006.36 1006.10 1004.61 1004.68 1001.68 1000.48 999.03 997.86 997.82 997.48 997.27 996.65 996.31 996.51 996.38 996.41 996.74 996.86 997.14 997.68 997.94 998.59 998.83 999.38 999.95 1000.80 1001.86 1002.99 1003.87 1004.21 1004.56 1004.90 1005.27 1005.67 1006.01 1006.49 1006.87 1007.00 1007.37 1007.74 1008.09 1008.13 1008.16 1008.39 1008.73 1009.18
1005.39 1006.16 1006.01 1005.97 1005.62 1005.47 1004.61 1003.86 995.60 998.33 997.43 996.90 996.41 995.85 995.53 995.89 996.03 995.97 995.91 996.34 996.85 997.42 997.80 998.34 998.86 999.47 999.88 1000.25 1000.99 1002.09 1003.11 1003.70 1004.20 1004.59 1005.05 1005.49 1005.86 1006.21 1006.51 1006.61 1006.89 1007.14 1007.55 1007.71 1007.79 1007.98 1008.18 1008.37 1008.64
1005.83 1005.58 1005.90 1005.90 1006.12 1005.33 1003.77 1003.56 996.24 997.51 996.56 996.16 995.44 995.23 995.23 995.26 995.44 995.85 995.91 996.34 997.30 997.75 998.23 998.75 999.27 1000.04 1000.21 1000.79 1001.61 1002.33 1003.13 1003.95 1004.49 1004.95 1005.42 1005.84 1006.09 1006.28 1006.50 1006.61 1006.77 1007.03 1007.19 1007.30 1007.38 1007.57 1007.81 1007.94 1008.17
1005.66 1006.10 1006.47 1006.37 1005.76 1003.14 1002.89 1002.37 997.30 995.99 995.41 995.40 995.23 994.97 994.90 994.98 995.52 996.04 996.44 996.91 997.34 998.07 998.55 999.29 999.82 1000.46 1000.70 1001.38 1002.16 1002.67 1003.18 1003.80 1004.45 1005.06 1005.49 1005.90 1006.26 1006.50 1006.54 1006.55 1006.69 1006.81 1006.90 1006.96 1006.99 1007.13 1007.37 1007.54 1007.79
1005.21 1005.82 1005.74 1005.43 1004.74 1003.40 1002.83 999.45 997.04 995.58 994.98 994.57 994.72 994.48 994.78 995.01 995.48 996.17 996.66 997.18 997.88 998.50 999.09 999.69 1000.26 1000.77 1001.18 1001.86 1002.47 1002.89 1003.35 1003.99 1004.58 1005.00 1005.46 1005.91 1006.18 1006.21 1006.26 1006.37 1006.50 1006.55 1006.59 1006.62 1006.65 1006.82 1007.01 1007.14 1007.38
1004.96 1005.00 1005.27 1005.41 1004.40 1003.92 1001.17 998.30 996.30 995.15 994.19 993.57 994.08 994.42 994.95 995.61 995.96 996.57 997.23 997.67 998.19 999.00 999.51 1000.06 1000.61 1001.10 1001.62 1002.16 1002.71 1003.29 1003.71 1004.15 1004.61 1005.01 1005.26 1005.62 1005.87 1006.12 1006.25 1006.33 1006.33 1006.41 1006.39 1006.42 1006.48 1006.78 1006.80 1006.87 1007.11
1004.93 1005.08 1005.12 1005.16 1004.78 1003.66 1000.55 998.42 995.90 994.70 993.87 993.51 993.83 994.52 995.40 996.09 996.35 996.98 997.52 998.09 998.68 999.40 999.83 1000.33 1000.90 1001.44 1001.89 1002.39 1002.92 1003.41 1003.85 1004.16 1004.52 1004.87 1005.35 1005.60 1005.86 1006.04 1006.22 1006.25 1006.34 1006.41 1006.33 1006.26 1006.35 1006.39 1006.53 1006.86 1007.02
1005.19 1004.87 1004.86 1004.58 1004.12 1002.55 1000.66 997.32 995.29 994.02 993.56 993.38 993.54 993.91 994.81 995.93 996.33 997.00 997.74 998.42 999.03 999.70 1000.21 1000.75 1001.25 1001.64 1002.23 1002.67 1003.17 1003.57 1003.92 1004.16 1004.51 1004.95 1005.32 1005.56 1005.78 1005.98 1006.11 1006.22 1006.38 1006.43 1006.30 1006.26 1006.38 1006.44 1006.56 1006.73 1006.83
1005.17 1005.18 1005.29 1005.15 1003.85 1002.08 1000.42 996.07 994.86 993.57 992.76 992.01 992.53 993.64 994.83 995.55 996.35 997.06 997.89 998.54 999.29 999.96 1000.40 1001.02 1001.44 1001.88 1002.35 1002.80 1003.31 1003.66 1004.02 1004.38 1004.75 1005.07 1005.28 1005.44 1005.71 1005.92 1006.01 1006.16 1006.34 1006.31 1006.31 1006.22 1006.39 1006.59 1006.72 1006.76 1006.88
Thickness
5790 5791 5793 5787 5760 5755 5751 5768 5801 5803 5812 5828 5837 5832 5823 5827 5811 5784 5850 5851 5845 5837 5826 5818 5811 5807 5802 5798 5793 5786 5778 5772 5767 5761 5756 5751 5749 5745 5739 5736 5732 5727 5722 5721 5719 5718 5716 5713 5711
5789 5789 5786 5772 5747 5739 5749 5785 5789 5801 5814 5833 5837 5827 5818 5809 5836 5839 5837 5841 5842 5835 5823 5815 5808 5804 5799 5792 5790 5783 5775 5769 5764 5756 5752 5749 5746 5742 5737 5733 5729 5724 5720 5716 5714 5712 5711 5709 5705
5785 5788 5762 5754 5747 5744 5754 5791 5802 5804 5820 5826 5821 5836 5811 5814 5837 5839 5844 5840 5835 5828 5820 5817 5812 5806 5798 5791 5787 5781 5773 5767 5761 5755 5750 5746 5742 5738 5734 5731 5727 5721 5717 5713 5710 5707 5705 5703 5702
5775 5770 5761 5745 5748 5770 5785 5801 5804 5802 5815 5822 5821 5810 5819 5833 5833 5842 5838 5833 5830 5825 5821 5820 5815 5809 5802 5793 5785 5780 5774 5768 5761 5756 5751 5744 5740 5736 5732 5726 5722 5717 5713 5709 5706 5703 5701 5698 5697
5768 5753 5731 5738 5756 5779 5797 5803 5804 5799 5808 5806 5820 5804 5809 5829 5840 5838 5833 5831 5831 5825 5823 5818 5815 5810 5802 5793 5785 5781 5775 5768 5762 5755 5750 5744 5738 5733 5728 5722 5717 5713 5709 5706 5703 5700 5697 5696 5693
5746 5744 5723 5731 5756 5784 5799 5801 5807 5801 5803 5810 5801 5797 5802 5828 5831 5831 5831 5830 5834 5831 5824 5818 5813 5809 5803 5796 5787 5781 5774 5769 5762 5754 5749 5742 5735 5728 5722 5718 5713 5709 5705 5702 5700 5696 5694 5692 5690
5735 5722 5721 5736 5752 5769 5792 5803 5795 5800 5800 5804 5817 5789 5805 5815 5829 5833 5828 5830 5828 5824 5819 5814 5812 5807 5805 5797 5787 5779 5773 5767 5761 5753 5747 5740 5732 5725 5720 5715 5709 5704 5702 5700 5697 5694 5692 5690 5687
5737 5721 5721 5731 5742 5759 5782 5793 5799 5800 5805 5828 5825 5787 5786 5814 5832 5831 5825 5822 5818 5817 5813 5812 5807 5801 5797 5795 5789 5781 5775 5768 5761 5753 5747 5739 5732 5724 5717 5712 5707 5702 5699 5696 5693 5691 5689 5686 5684
5746 5701 5702 5728 5743 5768 5773 5766 5804 5814 5805 5810 5816 5816 5818 5827 5827 5816 5814 5809 5802 5801 5803 5803 5802 5800 5792 5791 5786 5778 5771 5764 5758 5752 5746 5739 5730 5723 5716 5710 5705 5699 5696 5692 5691 5688 5684 5681 5679
5721 5703 5714 5751 5762 5763 5773 5759 5772 5787 5786 5797 5801 5814 5826 5829 5817 5808 5806 5804 5800 5802 5803 5800 5795 5794 5787 5784 5778 5772 5765 5759 5755 5750 5745 5738 5729 5721 5714 5708 5703 5697 5693 5688 5687 5686 5680 5677 5675
5728 5720 5739 5754 5757 5763 5765 5768 5768 5765 5766 5784 5788 5801 5817 5820 5818 5815 5808 5811 5817 5814 5809 5803 5799 5794 5788 5784 5778 5769 5763 5757 5752 5747 5741 5736 5727 5718 5712 5706 5702 5697 5692 5685 5683 5682 5678 5673 5670
5708 5736 5735 5744 5754 5753 5754 5767 5766 5768 5771 5794 5798 5799 5809 5812 5810 5807 5807 5809 5815 5817 5811 5804 5802 5795 5791 5783 5777 5769 5762 5756 5750 5745 5738 5731 5723 5716 5709 5703 5699 5695 5689 5683 5680 5677 5673 5669 5665
5711 5730 5726 5735 5742 5749 5754 5750 5757 5770 5788 5797 5801 5803 5801 5800 5804 5808 5808 5811 5813 5808 5809 5804 5801 5797 5792 5782 5776 5768 5764 5757 5749 5742 5735 5729 5721 5714 5708 5702 5697 5692 5685 5679 5675 5672 5668 5665 5661
5714 5708 5719 5725 5731 5740 5736 5749 5756 5769 5789 5792 5793 5795 5797 5797 5799 5803 5803 5801 5802 5805 5807 5801 5799 5798 5790 5782 5776 5771 5765 5757 5748 5741 5734 5728 5723 5715 5707 5700 5693 5688 5682 5677 5672 5668 5664 5660 5659
5695 5682 5698 5718 5723 5726 5737 5734 5744 5775 5779 5777 5780 5786 5789 5794 5800 5798 5802 5799 5801 5801 5803 5798 5800 5795 5788 5783 5777 5771 5767 5758 5748 5741 5734 5727 5722 5716 5708 5699 5692 5685 5677 5670 5665 5661 5658 5654 5652
5675 5674 5675 5718 5718 5722 5712 5725 5761 5767 5762 5764 5770 5775 5783 5793 5800 5801 5801 5798 5800 5799 5798 5798 5798 5794 5789 5784 5780 5772 5767 5759 5749 5740 5733 5726 5720 5714 5705 5695 5689 5683 5672 5663 5657 5652 5648 5646 5644
5654 5663 5675 5704 5716 5710 5703 5739 5743 5754 5756 5753 5759 5769 5778 5786 5793 5795 5802 5803 5803 5800 5798 5796 5790 5789 5786 5781 5776 5770 5765 5755 5746 5737 5730 5723 5717 5710 5702 5692 5684 5677 5668 5660 5654 5647 5641 5638 5638
5654 5667 5683 5679 5696 5700 5694 5720 5735 5745 5750 5751 5758 5769 5774 5781 5786 5799 5802 5803 5801 5798 5798 5793 5785 5784 5780 5772 5767 5761 5754 5747 5739 5732 5726 5719 5712 5705 5695 5686 5679 5671 5662 5652 5646 5642 5637 5634 5632
5656 5656 5666 5680 5691 5686 5698 5704 5723 5737 5742 5739 5753 5763 5774 5774 5792 5797 5797 5798 5794 5793 5788 5784 5780 5777 5774 5766 5758 5752 5745 5738 5731 5727 5720 5711 5701 5695 5687 5679 5673 5665 5656 5650 5642 5636 5632 5629 5625
5636 5637 5655 5661 5679 5684 5685 5696 5715 5733 5741 5741 5754 5763 5768 5776 5782 5785 5788 5792 5789 5787 5787 5782 5780 5776 5771 5767 5758 5749 5739 5730 5724 5717 5711 5705 5698 5691 5684 5677 5669 5660 5650 5642 5637 5631 5627 5624 5621
5629 5629 5642 5639 5659 5681 5666 5676 5702 5729 5737 5746 5749 5764 5767 5777 5777 5777 5783 5784 5782 5781 5780 5776 5774 5771 5764 5760 5753 5741 5732 5722 5714 5707 5703 5699 5695 5689 5682 5673 5663 5655 5647 5641 5636 5631 5625 5619 5615
5613 5634 5638 5634 5635 5634 5666 5648 5689 5722 5735 5741 5750 5752 5767 5775 5773 5776 5778 5776 5776 5775 5772 5768 5763 5761 5758 5755 5747 5738 5724 5714 5711 5707 5700 5695 5690 5684 5677 5668 5661 5653 5646 5639 5635 5630 5624 5618 5612
5618 5624 5627 5632 5631 5630 5641 5632 5731 5717 5722 5740 5752 5764 5774 5772 5771 5774 5779 5775 5772 5768 5763 5760 5755 5751 5748 5747 5741 5730 5719 5712 5706 5700 5693 5687 5682 5678 5671 5665 5659 5651 5644 5639 5634 5628 5622 5617 5612
5611 5615 5615 5624 5617 5601 5649 5643 5709 5710 5728 5738 5752 5760 5767 5769 5772 5772 5773 5770 5761 5758 5754 5751 5747 5741 5742 5738 5730 5721 5712 5703 5697 5691 5685 5679 5675 5670 5665 5661 5655 5649 5643 5638 5634 5629 5623 5618 5612
5589 5585 5571 5579 5585 5627 5660 5646 5704 5725 5738 5737 5746 5757 5765 5768 5767 5763 5761 5758 5755 5749 5747 5742 5739 5734 5734 5727 5719 5713 5706 5700 5693 5686 5679 5673 5668 5663 5660 5657 5653 5648 5644 5639 5635 5631 5626 5620 5615
5570 5573 5567 5576 5586 5627 5654 5651 5691 5736 5743 5752 5756 5762 5765 5765 5760 5756 5755 5751 5746 5742 5739 5735 5732 5728 5724 5718 5710 5706 5700 5694 5687 5682 5676 5668 5663 5660 5658 5655 5653 5649 5646 5641 5636 5632 5628 5624 5620
5568 5569 5596 5585 5610 5606 5644 5677 5706 5737 5742 5755 5755 5757 5753 5752 5752 5749 5746 5743 5739 5734 5732 5730 5726 5720 5716 5710 5704 5698 5693 5688 5683 5677 5672 5666 5662 5658 5656 5654 5652 5649 5647 5642 5637 5631 5629 5627 5623
5565 5580 5568 5573 5576 5585 5634 5655 5682 5719 5729 5742 5745 5746 5747 5745 5746 5743 5741 5736 5734 5730 5728 5724 5719 5713 5709 5704 5698 5693 5688 5684 5679 5673 5667 5663 5659 5656 5655 5654 5652 5649 5647 5644 5640 5635 5631 5627 5625
5551 5561 5571 5577 5586 5604 5612 5651 5701 5725 5732 5740 5744 5751 5748 5742 5743 5740 5737 5732 5729 5726 5721 5716 5712 5708 5703 5698 5694 5689 5684 5680 5675 5668 5664 5661 5658 5655 5655 5654 5651 5648 5646 5645 5640 5636 5632 5628 5627
5547 5551 5555 5551 5579 5608 5621 5665 5716 5728 5737 5751 5751 5750 5746 5743 5740 5737 5732 5727 5723 5719 5716 5710 5707 5703 5698 5694 5689 5685 5680 5675 5670 5666 5662 5659 5656 5655 5656 5654 5651 5648 5646 5645 5641 5635 5631 5629 5626